Flag for South Korea Weather past 2 weeks in Incheon, South Korea

Now
55 °F

Fog.


Feels Like: 53 °F
Forecast: 51 / 66 °F
Wind: 9 mph from Northeast

Location: Incheon International Airport


UV Index: 5 (Moderate)

Visibility: 2 mi


Pressure: 29.95 "Hg

Humidity: 72%

Dew point: 46 °F

Location of IncheonLocation

Historic Weather in Incheon

°F

Incheon temperature yesterday

Maximum temperature yesterday: 63 °F (at 2:00 PM)
Minimum temperature yesterday: 43 °F (at 11:00 PM)
Average temperature yesterday: 52 °F

Past Weeks' High & Low Weather Summary

 TemperatureHumidityPressure
High68 °F (Apr 13, 12:30 PM)100% (Apr 8, 9:30 PM)30.18 "Hg (Apr 8, 9:30 PM)
Low34 °F (Apr 5, 5:30 AM)14% (Apr 2, 1:30 PM)29.86 "Hg (Apr 3, 7:00 PM)
Average49 °F73%30.05 "Hg
* Reported Apr 2 9:00 AM — Apr 17 9:00 AM, Incheon, Weather by CustomWeather, © 2014

Note: Actual official high and low records may vary slightly from our data, if they occured in-between our weather recording intervals... More about our weather records

Advertising

Historic Weather Conditions — Data for Previous 24 hours

 ConditionsComfort  
Time TempWeatherWind HumidityBarometerVisibility
9:00 AM
Apr 17
54 °FFog.8 mph82%29.95 "Hg1 mi
8:30 AM50 °FSleet. Fog.3 mph94%29.98 "Hg1 mi
8:00 AM46 °FSleet. Fog.5 mph100%29.98 "Hg1 mi
7:30 AM45 °FQuite cool.6 mph93%29.98 "Hg1 mi
7:00 AM41 °FQuite cool.2 mph100%29.98 "Hg0 mi
6:30 AM41 °FQuite cool.2 mph93%29.98 "Hg0 mi
6:00 AM39 °FChilly.3 mph100%29.98 "Hg0 mi
5:30 AM41 °FQuite cool.3 mph93%29.98 "Hg1 mi
5:00 AM41 °FSnow. Overcast.5 mph93%29.98 "Hg1 mi
4:30 AM41 °FSnow. Overcast.6 mph100%29.98 "Hg1 mi
4:00 AM43 °FSnow. Fog.3 mph93%29.98 "Hg1 mi
3:30 AM43 °FSnow. Overcast.3 mph93%29.98 "Hg1 mi
3:00 AM43 °FQuite cool.6 mph93%29.98 "Hg1 mi
2:30 AM43 °FQuite cool.6 mph100%29.98 "Hg1 mi
2:00 AM43 °FFog.7 mph93%30.01 "Hg0 mi
1:30 AM43 °FQuite cool.5 mph93%30.01 "Hg1 mi
1:00 AM45 °FQuite cool.3 mph93%30.01 "Hg1 mi
12:30 AM45 °FQuite cool.3 mph93%30.01 "Hg1 mi
12:00 AM43 °FFog.3 mph93%30.01 "Hg1 mi
11:30 PM
Apr 16
45 °FSnow. Fog.3 mph93%30.01 "Hg1 mi
11:00 PM43 °FFog.2 mph93%30.01 "Hg1 mi
10:30 PM45 °FFog.3 mph93%30.01 "Hg1 mi
10:00 PM45 °FQuite cool.2 mph93%30.01 "Hg1 mi
9:30 PM45 °FQuite cool.6 mph93%30.01 "Hg1 mi
9:00 PM45 °FQuite cool.5 mph100%30.01 "Hg1 mi
8:30 PM45 °FFog.6 mph100%29.98 "Hg0 mi
8:00 PM46 °FCool.6 mph93%29.95 "Hg1 mi
7:30 PM46 °FFog.6 mph93%29.95 "Hg0 mi
7:00 PM46 °FFog.7 mph93%29.95 "Hg0 mi
6:30 PM48 °FCool.9 mph87%29.95 "Hg1 mi
6:00 PM50 °FCool.10 mph88%29.95 "Hg1 mi
5:30 PM48 °FFog.9 mph87%29.95 "Hg1 mi
5:00 PM52 °FCool.10 mph82%29.95 "Hg1 mi
4:30 PM54 °FFog.10 mph77%29.95 "Hg1 mi
4:00 PM52 °FFog.12 mph82%29.95 "Hg1 mi
3:30 PM55 °FScattered clouds.10 mph77%29.95 "Hg2 mi
3:00 PM61 °FScattered clouds.7 mph68%29.95 "Hg2 mi
2:30 PM61 °FPartly sunny.10 mph68%29.98 "Hg2 mi
2:00 PM63 °FPartly sunny.7 mph64%29.98 "Hg2 mi
1:30 PM61 °FBroken clouds.6 mph63%30.01 "Hg2 mi
1:00 PM61 °FBroken clouds.7 mph63%30.01 "Hg2 mi
12:30 PM59 °FFog.9 mph72%30.01 "Hg2 mi
12:00 PM59 °FFog.10 mph72%30.01 "Hg1 mi
11:30 AM59 °FFog.9 mph72%30.04 "Hg1 mi
11:00 AM57 °FFog.7 mph77%30.04 "Hg1 mi
10:30 AM55 °FFog.6 mph82%30.04 "Hg1 mi
10:00 AM52 °FFog.7 mph94%30.07 "Hg1 mi
Weather by CustomWeather, © 2014

See weather overview